Time,TemperatureF,DewpointF,PressureIn,WindDirection,WindDirectionDegrees,WindSpeedMPH,WindSpeedGustMPH,Humidity,HourlyPrecipIn,Conditions,Clouds,dailyrainin,SoftwareType,DateUTC
2013-01-09 00:00:00,24.9,22.6,30.40,NE,47,1.2,0.0,91,0.00,RA,FEW,0.00,WeatherDisplay:10.37,2013-01-09 05:00:00,
2013-01-09 00:01:00,25.0,22.5,30.40,NE,47,0.0,0.0,90,0.00,RA,FEW,0.00,WeatherDisplay:10.37,2013-01-09 05:01:00,
2013-01-09 00:02:00,25.0,22.5,30.40,NE,47,0.0,0.0,90,0.00,RA,FEW,0.00,WeatherDisplay:10.37,2013-01-09 05:02:00,
2013-01-09 00:03:00,25.2,22.7,30.40,NE,47,0.0,0.0,90,0.00,RA,FEW,0.00,WeatherDisplay:10.37,2013-01-09 05:03:00,
2013-01-09 00:08:00,25.4,22.9,30.40,NE,47,0.0,0.0,90,0.00,RA,FEW,0.00,WeatherDisplay:10.37,2013-01-09 05:08:00,
2013-01-09 00:13:00,25.4,22.9,30.40,NE,47,0.0,0.0,90,0.00,CLR,FEW,0.00,WeatherDisplay:10.37,2013-01-09 05:13:00,
2013-01-09 00:18:00,25.4,22.6,30.40,NE,47,0.0,0.0,89,0.00,CLR,FEW,0.00,WeatherDisplay:10.37,2013-01-09 05:18:00,
2013-01-09 00:23:00,25.3,22.8,30.39,NE,47,0.0,0.0,90,0.00,CLR,FEW,0.00,WeatherDisplay:10.37,2013-01-09 05:23:00,
2013-01-09 00:28:00,25.1,21.8,30.39,NE,47,1.2,0.0,87,0.00,CLR,FEW,0.00,WeatherDisplay:10.37,2013-01-09 05:28:00,
2013-01-09 00:33:00,24.2,20.6,30.40,NE,47,0.0,0.0,86,0.00,CLR,FEW,0.00,WeatherDisplay:10.37,2013-01-09 05:33:00,
2013-01-09 00:38:00,23.8,20.5,30.39,NE,47,0.0,0.0,87,0.00,CLR,FEW,0.00,WeatherDisplay:10.37,2013-01-09 05:38:00,
2013-01-09 00:43:00,23.5,20.5,30.39,NE,47,0.0,0.0,88,0.00,CLR,FEW,0.00,WeatherDisplay:10.37,2013-01-09 05:43:00,
2013-01-09 00:48:00,23.5,21.0,30.39,NE,47,0.0,0.0,90,0.00,CLR,FEW,0.00,WeatherDisplay:10.37,2013-01-09 05:48:00,
2013-01-09 00:53:00,23.6,21.4,30.39,NE,47,0.0,0.0,91,0.00,CLR,FEW,0.00,WeatherDisplay:10.37,2013-01-09 05:53:00,
2013-01-09 00:58:00,23.4,20.6,30.40,NE,47,0.0,0.0,89,0.00,CLR,FEW,0.00,WeatherDisplay:10.37,2013-01-09 05:58:00,
2013-01-09 01:03:00,23.1,20.3,30.39,NE,47,0.0,0.0,89,0.00,CLR,FEW,0.00,WeatherDisplay:10.37,2013-01-09 06:03:00,
2013-01-09 01:08:00,22.8,20.3,30.39,NE,47,0.0,0.0,90,0.00,CLR,FEW,0.00,WeatherDisplay:10.37,2013-01-09 06:08:00,
2013-01-09 01:13:00,22.9,20.7,30.39,NE,47,0.0,0.0,91,0.00,CLR,FEW,0.00,WeatherDisplay:10.37,2013-01-09 06:13:00,
2013-01-09 01:18:00,23.0,20.8,30.40,NE,47,0.0,0.0,91,0.00,CLR,FEW,0.00,WeatherDisplay:10.37,2013-01-09 06:18:00,
2013-01-09 01:23:00,22.8,20.3,30.40,NE,47,0.0,0.0,90,0.00,CLR,FEW,0.00,WeatherDisplay:10.37,2013-01-09 06:23:00,
2013-01-09 01:28:00,22.7,20.2,30.40,NE,47,0.0,0.0,90,0.00,CLR,FEW,0.00,WeatherDisplay:10.37,2013-01-09 06:28:00,
2013-01-09 01:33:00,22.8,20.6,30.40,NE,47,0.0,0.0,91,0.00,CLR,FEW,0.00,WeatherDisplay:10.37,2013-01-09 06:33:00,
2013-01-09 01:38:00,22.9,20.7,30.40,NE,47,0.0,0.0,91,0.00,CLR,FEW,0.00,WeatherDisplay:10.37,2013-01-09 06:38:00,
2013-01-09 01:43:00,23.0,21.0,30.40,NE,47,0.0,0.0,92,0.00,CLR,FEW,0.00,WeatherDisplay:10.37,2013-01-09 06:43:00,
2013-01-09 01:48:00,23.2,21.2,30.39,NE,47,0.0,0.0,92,0.00,CLR,FEW,0.00,WeatherDisplay:10.37,2013-01-09 06:48:00,
2013-01-09 01:53:00,23.6,21.6,30.40,NE,47,0.0,0.0,92,0.00,CLR,FEW,0.00,WeatherDisplay:10.37,2013-01-09 06:53:00,
2013-01-09 01:58:00,23.5,21.3,30.39,NE,47,0.0,0.0,91,0.00,CLR,FEW,0.00,WeatherDisplay:10.37,2013-01-09 06:58:00,
2013-01-09 02:03:00,23.3,20.8,30.40,NE,47,0.0,0.0,90,0.00,CLR,FEW,0.00,WeatherDisplay:10.37,2013-01-09 07:03:00,
2013-01-09 02:08:00,22.9,20.4,30.39,NE,47,0.0,0.0,90,0.00,CLR,FEW,0.00,WeatherDisplay:10.37,2013-01-09 07:08:00,
2013-01-09 02:13:00,22.6,20.1,30.39,NE,47,0.0,0.0,90,0.00,CLR,FEW,0.00,WeatherDisplay:10.37,2013-01-09 07:13:00,
2013-01-09 02:18:00,22.5,20.3,30.39,NE,47,0.0,0.0,91,0.00,CLR,FEW,0.00,WeatherDisplay:10.37,2013-01-09 07:18:00,
2013-01-09 02:23:00,22.4,20.2,30.39,NE,47,0.0,0.0,91,0.00,CLR,FEW,0.00,WeatherDisplay:10.37,2013-01-09 07:23:00,
2013-01-09 02:28:00,22.5,20.5,30.39,NE,47,0.0,0.0,92,0.00,CLR,FEW,0.00,WeatherDisplay:10.37,2013-01-09 07:28:00,
2013-01-09 02:33:00,22.6,20.6,30.39,NE,47,0.0,0.0,92,0.00,CLR,FEW,0.00,WeatherDisplay:10.37,2013-01-09 07:33:00,
2013-01-09 02:38:00,22.4,20.2,30.38,NE,47,0.0,0.0,91,0.00,CLR,FEW,0.00,WeatherDisplay:10.37,2013-01-09 07:38:00,
2013-01-09 02:43:00,22.3,20.3,30.39,NE,47,0.0,0.0,92,0.00,CLR,FEW,0.00,WeatherDisplay:10.37,2013-01-09 07:43:00,
2013-01-09 02:48:00,22.0,19.8,30.39,NE,47,0.0,0.0,91,0.00,CLR,FEW,0.00,WeatherDisplay:10.37,2013-01-09 07:48:00,
2013-01-09 02:53:00,22.1,20.1,30.38,NE,47,0.0,0.0,92,0.00,CLR,FEW,0.00,WeatherDisplay:10.37,2013-01-09 07:53:00,
2013-01-09 02:58:00,22.1,20.1,30.38,NE,47,0.0,0.0,92,0.00,CLR,FEW,0.00,WeatherDisplay:10.37,2013-01-09 07:58:00,
2013-01-09 03:03:00,21.9,19.9,30.38,NE,47,0.0,0.0,92,0.00,CLR,FEW,0.00,WeatherDisplay:10.37,2013-01-09 08:03:00,
2013-01-09 03:08:00,21.8,19.8,30.38,NE,47,0.0,0.0,92,0.00,CLR,FEW,0.00,WeatherDisplay:10.37,2013-01-09 08:08:00,
2013-01-09 03:13:00,21.8,19.8,30.38,NE,47,0.0,0.0,92,0.00,CLR,FEW,0.00,WeatherDisplay:10.37,2013-01-09 08:13:00,
2013-01-09 03:18:00,21.7,19.7,30.38,NE,47,0.0,0.0,92,0.00,CLR,FEW,0.00,WeatherDisplay:10.37,2013-01-09 08:18:00,
2013-01-09 03:23:00,21.5,19.5,30.38,NE,47,0.0,0.0,92,0.00,CLR,FEW,0.00,WeatherDisplay:10.37,2013-01-09 08:23:00,
2013-01-09 03:28:00,21.1,18.9,30.38,NE,47,0.0,0.0,91,0.00,CLR,FEW,0.00,WeatherDisplay:10.37,2013-01-09 08:28:00,
2013-01-09 20:50:00,30.4,28.9,30.04,West,278,0.0,0.0,94,0.00,CLR,FEW,0.05,WeatherDisplay:10.37,2013-01-10 01:50:00,
2013-01-09 20:51:00,30.3,28.8,30.04,West,278,1.0,0.0,94,0.00,CLR,FEW,0.05,WeatherDisplay:10.37,2013-01-10 01:51:00,
2013-01-09 20:56:00,30.1,28.6,30.04,West,278,1.2,0.0,94,0.00,CLR,FEW,0.05,WeatherDisplay:10.37,2013-01-10 01:56:00,
2013-01-09 21:01:00,29.9,28.4,30.05,West,278,0.0,0.0,94,0.00,CLR,FEW,0.05,WeatherDisplay:10.37,2013-01-10 02:01:00,
2013-01-09 21:06:00,29.9,28.4,30.05,West,278,0.0,0.0,94,0.00,CLR,FEW,0.05,WeatherDisplay:10.37,2013-01-10 02:06:00,
2013-01-09 21:11:00,29.9,28.4,30.05,West,278,0.0,0.0,94,0.00,CLR,FEW,0.05,WeatherDisplay:10.37,2013-01-10 02:11:00,
2013-01-09 21:16:00,30.0,28.7,30.06,West,278,0.0,0.0,95,0.00,CLR,FEW,0.05,WeatherDisplay:10.37,2013-01-10 02:16:00,
2013-01-09 21:21:00,30.1,28.8,30.07,West,278,1.0,1.0,95,0.00,CLR,FEW,0.05,WeatherDisplay:10.37,2013-01-10 02:21:00,
2013-01-09 21:26:00,30.5,29.2,30.07,West,278,1.2,1.2,95,0.00,CLR,FEW,0.05,WeatherDisplay:10.37,2013-01-10 02:26:00,
2013-01-09 21:31:00,30.8,29.5,30.07,West,278,1.2,1.2,95,0.00,CLR,FEW,0.05,WeatherDisplay:10.37,2013-01-10 02:31:00,
2013-01-09 21:36:00,30.9,29.6,30.07,West,278,0.0,0.0,95,0.00,CLR,FEW,0.05,WeatherDisplay:10.37,2013-01-10 02:36:00,
2013-01-09 21:41:00,31.0,29.7,30.07,West,278,1.2,0.0,95,0.00,CLR,FEW,0.05,WeatherDisplay:10.37,2013-01-10 02:41:00,
2013-01-09 21:46:00,31.2,29.9,30.06,NW,307,5.8,5.8,95,0.00,CLR,FEW,0.05,WeatherDisplay:10.37,2013-01-10 02:46:00,
2013-01-09 21:51:00,32.2,30.4,30.07,NW,304,3.5,3.5,93,0.00,CLR,FEW,0.05,WeatherDisplay:10.37,2013-01-10 02:51:00,
2013-01-09 21:56:00,33.9,30.4,30.06,WNW,284,3.5,3.5,87,0.00,CLR,FEW,0.05,WeatherDisplay:10.37,2013-01-10 02:56:00,
2013-01-09 22:01:00,36.1,29.9,30.07,NW,319,10.4,10.4,78,0.00,CLR,FEW,0.05,WeatherDisplay:10.37,2013-01-10 03:01:00,
2013-01-09 22:06:00,37.8,29.2,30.07,North,360,9.2,9.2,71,0.00,CLR,FEW,0.05,WeatherDisplay:10.37,2013-01-10 03:06:00,
2013-01-09 22:11:00,38.7,29.0,30.08,WNW,295,9.2,9.2,68,0.00,CLR,FEW,0.05,WeatherDisplay:10.37,2013-01-10 03:11:00,
2013-01-09 22:16:00,38.7,28.7,30.07,NW,313,8.1,8.1,67,0.00,CLR,FEW,0.05,WeatherDisplay:10.37,2013-01-10 03:16:00,
2013-01-09 22:21:00,38.7,29.0,30.07,WNW,299,11.5,11.5,68,0.00,CLR,FEW,0.05,WeatherDisplay:10.37,2013-01-10 03:21:00,
2013-01-09 22:26:00,38.4,28.8,30.06,NNW,329,3.5,3.5,68,0.00,CLR,FEW,0.05,WeatherDisplay:10.37,2013-01-10 03:26:00,
2013-01-09 22:31:00,38.1,28.1,30.06,NW,321,5.0,5.0,67,0.00,CLR,FEW,0.05,WeatherDisplay:10.37,2013-01-10 03:31:00,
2013-01-09 22:36:00,37.9,27.9,30.07,NW,315,8.1,8.1,67,0.00,CLR,FEW,0.05,WeatherDisplay:10.37,2013-01-10 03:36:00,
2013-01-09 22:41:00,37.9,27.9,30.07,WNW,303,6.9,6.9,67,0.00,CLR,FEW,0.05,WeatherDisplay:10.37,2013-01-10 03:41:00,
2013-01-09 22:46:00,38.1,28.1,30.07,NNW,335,9.2,9.2,67,0.00,CLR,FEW,0.05,WeatherDisplay:10.37,2013-01-10 03:46:00,
2013-01-09 22:51:00,38.4,28.0,30.07,NNW,327,6.9,6.9,66,0.00,CLR,FEW,0.05,WeatherDisplay:10.37,2013-01-10 03:51:00,
2013-01-09 22:56:00,38.6,28.2,30.07,NE,55,5.0,5.0,66,0.00,CLR,FEW,0.05,WeatherDisplay:10.37,2013-01-10 03:56:00,
2013-01-09 23:01:00,38.7,28.3,30.07,North,349,10.4,10.4,66,0.00,CLR,FEW,0.05,WeatherDisplay:10.37,2013-01-10 04:01:00,
2013-01-09 23:06:00,38.7,28.3,30.07,WNW,292,9.2,9.2,66,0.00,CLR,FEW,0.05,WeatherDisplay:10.37,2013-01-10 04:06:00,
2013-01-09 23:11:00,38.8,28.8,30.07,West,278,8.1,8.1,67,0.00,CLR,FEW,0.05,WeatherDisplay:10.37,2013-01-10 04:11:00,
2013-01-09 23:16:00,38.8,28.0,30.07,West,279,9.2,9.2,65,0.00,CLR,FEW,0.05,WeatherDisplay:10.37,2013-01-10 04:16:00,
2013-01-09 23:21:00,39.1,28.7,30.07,NW,321,11.5,11.5,66,0.00,CLR,FEW,0.05,WeatherDisplay:10.37,2013-01-10 04:21:00,
2013-01-09 23:26:00,39.2,28.4,30.07,NNW,348,8.1,8.1,65,0.00,CLR,FEW,0.05,WeatherDisplay:10.37,2013-01-10 04:26:00,
2013-01-09 23:31:00,39.0,28.6,30.07,NNW,346,8.1,8.1,66,0.00,CLR,FEW,0.05,WeatherDisplay:10.37,2013-01-10 04:31:00,
2013-01-09 23:36:00,38.9,28.5,30.06,WNW,295,12.7,12.7,66,0.00,CLR,FEW,0.05,WeatherDisplay:10.37,2013-01-10 04:36:00,
2013-01-09 23:41:00,39.0,29.0,30.07,West,279,8.1,8.1,67,0.00,CLR,FEW,0.05,WeatherDisplay:10.37,2013-01-10 04:41:00,
2013-01-09 23:46:00,38.9,28.9,30.07,West,265,11.5,11.5,67,0.00,CLR,FEW,0.05,WeatherDisplay:10.37,2013-01-10 04:46:00,
2013-01-09 23:51:00,39.0,28.2,30.07,West,269,9.2,9.2,65,0.00,CLR,FEW,0.05,WeatherDisplay:10.37,2013-01-10 04:51:00,
2013-01-09 23:56:00,38.6,28.9,30.08,WNW,292,11.5,11.5,68,0.00,CLR,FEW,0.05,WeatherDisplay:10.37,2013-01-10 04:56:00,